Duluth, MN

6:38 PM CDT on July 25, 2017 (GMT -0500)
Duluth International

Weather History for KDLH - February, 2013

Change the Weather History Date:

Tuesday, February 5, 2013

  Actual Average Record
Temperature  
Mean Temperature 13 °F 12 °F  
Max Temperature 19 °F 21 °F 45 °F (1877)
Min Temperature 7 °F 3 °F -33 °F (1936)
Degree Days  
Heating Degree Days 52 53  
Month to date heating degree days 326 267  
Since 1 July heating degree days 5429 5735  
Cooling Degree Days 0 0  
Month to date cooling degree days 0 0  
Year to date cooling degree days 0 0  
Moisture  
Dew Point 4 °F    
Average Humidity 69    
Maximum Humidity 91    
Minimum Humidity 47    
Precipitation  
Precipitation 0.09 in 0.02 in 0.55 in (1946)
Month to date precipitation 0.17 0.12  
Year to date precipitation 1.56 1.08  
Snow  
Snow 1.40 in 0.40 in 14.00 in (2006)
Month to date snowfall 3.2 2.2  
Since 1 July snowfall 36.9 55.4  
Snow Depth 11.00 in    
Sea Level Pressure  
Sea Level Pressure 29.79 in    
Wind  
Wind Speed 8 mph (West)    
Max Wind Speed 18 mph    
Max Gust Speed 24 mph    
Visibility 6 miles    
Events Snow    
T = Trace of Precipitation, MM = Missing Value Source: NWS Daily Summary

Daily Weather History Graph

Daily Weather History Graph

Search for Another Location

Airport or City:

Trip Planner

Search our weather history database for the weather conditions in past years. The results will help you decide how hot, cold, wet, or windy it might be!

Date:

Astronomy

Feb. 05, 2013 Rise Set
Actual Time 7:27 AM CST 5:18 PM CST
Civil Twilight 6:55 AM CST 5:50 PM CST
Nautical Twilight 6:19 AM CST 6:26 PM CST
Astronomical Twilight 5:44 AM CST 7:02 PM CST
Moon 3:16 AM CST (2/5) 12:29 PM CST (2/5)
Length of Visible Light 10h 55m
Length of Day
9h 51m
Waning Crescent, 26% of the Moon is Illuminated
Feb 5
Waning Crescent
Feb 10
New
Feb 17
First Quarter
Feb 25
Full
Mar 4
Last Quarter

Hourly Weather History & Observations

Time (CST) Temp. Windchill Dew Point Humidity Pressure Visibility Wind Dir Wind Speed Gust Speed Precip Events Conditions
12:28 AM 8.6 °F -4.7 °F 3.2 °F 79% 29.62 in 0.8 mi South 9.2 mph - 0.03 in Snow Light Snow
12:39 AM 8.6 °F -6.3 °F 3.2 °F 79% 29.61 in 1.0 mi South 11.5 mph - 0.03 in Snow Light Snow
12:51 AM 8.6 °F -5.5 °F 3.2 °F 79% 29.61 in 0.8 mi South 10.4 mph - 0.05 in Snow Light Snow
12:55 AM 8.1 °F -6.2 °F 3.0 °F 80% 29.71 in 1.0 mi South 10.4 mph - 0.05 in Snow Light Snow
1:03 AM 8.6 °F -5.5 °F 3.2 °F 79% 29.60 in 3.0 mi South 10.4 mph - 0.02 in Snow Light Snow
1:13 AM 8.6 °F -5.5 °F 3.2 °F 79% 29.59 in 2.5 mi South 10.4 mph - 0.02 in Snow Light Snow
1:21 AM 8.6 °F -5.5 °F 3.2 °F 79% 29.59 in 1.5 mi South 10.4 mph - 0.02 in Snow Light Snow
1:36 AM 8.6 °F -5.5 °F 3.2 °F 79% 29.59 in 3.0 mi SSW 10.4 mph - 0.03 in Snow Light Snow
1:50 AM 8.6 °F -3.7 °F 3.2 °F 79% 29.59 in 2.5 mi South 8.1 mph - 0.03 in Snow Light Snow
1:55 AM 9.0 °F -3.2 °F 3.9 °F 80% 29.70 in 2.0 mi SSW 8.1 mph - 0.03 in Snow Light Snow
2:08 AM 8.6 °F -2.6 °F 5.0 °F 85% 29.58 in 1.8 mi SSW 6.9 mph - 0.00 in Snow Light Snow
2:30 AM 8.6 °F -2.6 °F 5.0 °F 85% 29.59 in 1.5 mi SSW 6.9 mph - 0.00 in Snow Light Snow
2:55 AM 9.0 °F -0.9 °F 6.1 °F 88% 29.67 in 1.5 mi SW 5.8 mph - 0.00 in Snow Light Snow
3:43 AM 10.4 °F 2.2 °F 6.8 °F 85% 29.56 in 2.0 mi SW 4.6 mph - 0.01 in   Overcast
3:55 AM 10.0 °F 0.4 °F 7.0 °F 87% 29.66 in 2.5 mi SW 5.8 mph - 0.01 in   Overcast
4:20 AM 10.4 °F 0.8 °F 8.6 °F 92% 29.56 in 3.0 mi WSW 5.8 mph - N/A   Overcast
4:55 AM 12.0 °F 4.1 °F 8.1 °F 84% 29.66 in 2.0 mi West 4.6 mph - N/A   Overcast
5:02 AM 12.2 °F 1.7 °F 8.6 °F 85% 29.56 in 3.0 mi WSW 6.9 mph - N/A   Overcast
5:55 AM 12.0 °F 5.9 °F 9.0 °F 88% 29.68 in 4.0 mi WNW 3.5 mph - N/A   Overcast
6:55 AM 12.9 °F 5.2 °F 9.0 °F 84% 29.71 in 4.0 mi NW 4.6 mph - 0.00 in Snow Light Snow
7:55 AM 12.0 °F -1.3 °F 9.0 °F 88% 29.75 in 4.0 mi NNW 10.4 mph - 0.00 in Snow Light Snow
8:35 AM 10.4 °F -5.4 °F 6.8 °F 85% 29.68 in 7.0 mi NNW 13.8 mph 19.6 mph 0.00 in Snow Light Snow
8:55 AM 10.9 °F -3.4 °F 6.1 °F 81% 29.79 in 9.0 mi NNW 11.5 mph 20.7 mph 0.00 in Snow Light Snow
9:55 AM 10.9 °F -4.7 °F 5.0 °F 77% 29.82 in 10.0 mi NNW 13.8 mph 20.7 mph N/A   Partly Cloudy
10:55 AM 12.9 °F -1.6 °F 3.9 °F 67% 29.87 in 10.0 mi North 12.7 mph - N/A   Partly Cloudy
11:55 AM 15.1 °F 1.1 °F 3.9 °F 61% 29.89 in 10.0 mi NNW 12.7 mph 19.6 mph N/A   Partly Cloudy
12:55 PM 17.1 °F 2.0 °F 3.9 °F 56% 29.91 in 10.0 mi NNW 16.1 mph - N/A   Partly Cloudy
1:55 PM 18.0 °F 4.2 °F 3.9 °F 54% 29.93 in 10.0 mi NW 13.8 mph - N/A   Partly Cloudy
2:55 PM 18.0 °F 4.8 °F -0.0 °F 45% 29.95 in 10.0 mi NW 12.7 mph 20.7 mph N/A   Clear
3:55 PM 18.0 °F 5.4 °F -0.0 °F 45% 29.97 in 10.0 mi NNW 11.5 mph - N/A   Clear
4:55 PM 17.1 °F 5.8 °F 1.0 °F 50% 30.00 in 10.0 mi NW 9.2 mph - N/A   Clear
5:55 PM 12.9 °F 2.6 °F -2.0 °F 51% 30.02 in 10.0 mi NW 6.9 mph - N/A   Partly Cloudy
6:55 PM 12.0 °F 1.5 °F -2.0 °F 53% 30.04 in 10.0 mi NW 6.9 mph - N/A   Partly Cloudy
7:55 PM 10.9 °F 1.4 °F -2.0 °F 56% 30.06 in 10.0 mi NW 5.8 mph - N/A   Mostly Cloudy
8:55 PM 10.9 °F 1.4 °F -2.0 °F 56% 30.06 in 10.0 mi NNW 5.8 mph - N/A   Mostly Cloudy
9:55 PM 10.9 °F - -2.0 °F 56% 30.08 in 10.0 mi Calm Calm - N/A   Mostly Cloudy
10:55 PM 10.0 °F - -0.9 °F 61% 30.08 in 10.0 mi Calm Calm - N/A   Mostly Cloudy
11:55 PM 10.0 °F - -0.9 °F 61% 30.09 in 10.0 mi Calm Calm - N/A   Overcast